Back to catalog

CSG-2

AliveScienceSSO
NORAD 51444·PAYLOAD·🇮🇹 Italy

Launched Jan 31, 2022 from Cape Canaveral Space Force Station

Loading…

Next Passes (next 24 hours)

TLE

FreshSource: Space-Track

Epoch: Sep 14, 2026, 14:29 UTC

1 51444U 22008A   26257.60409363  .00000434  00000-0  61078-4 0  9990
2 51444  97.8904  79.9263 0001383  82.5156 277.6214 14.82152594249831

Track CSG-2 in real time with AllMySat

Download on the App Store